Home > Weather > Aklavik > Past weeks

Flag for Canada Weather for the Past 2 Weeks in Aklavik, Northwest Territories, Canada

Now
32 °F

Ice fog.


Feels Like: 26 °F
Forecast: 30 / 36 °F
Wind: 6 mph from West

Location: Inuvik

Current Time: May 3, 2016 at 2:45:53 AM

Latest Report: May 3, 2016 at 2:00 AM


Visibility: 0 mi

Pressure: 29.68 "Hg

Humidity: 93%

Dew Point: 30 °F

Location of AklavikLocation

Historic Weather in Aklavik — Graph

°F

Aklavik Temperature Yesterday

Maximum temperature yesterday: 36 °F (at 5:00 PM)
Minimum temperature yesterday: 28 °F (at 3:00 AM)
Average temperature yesterday: 31 °F

High & Low Weather Summary for the Past Weeks

 TemperatureHumidityPressure
High45 °F (Apr 28, 5:00 PM)100% (Apr 29, 7:00 AM)30.57 "Hg (Apr 29, 7:00 AM)
Low7 °F (Apr 18, 7:00 AM)40% (Apr 22, 2:00 PM)29.67 "Hg (May 3, 12:00 AM)
Average29 °F73%30.04 "Hg
* Reported Apr 18 1:00 AM — May 3 1:00 AM, Aklavik, Weather by CustomWeather, © 2016

Note: Actual official high and low records may vary slightly from our data, if they occured in-between our weather recording intervals... More about our weather records

Advertising

Aklavik Weather History for the Previous 24 Hours

Scroll right to see more
 ConditionsComfort  
Time TempWeatherWind HumidityBarometerVisibility
1:00 AM
Tue, May 3
32 °FIce fog.5 mph100%29.68 "Hg0 mi
12:00 AM34 °FDrizzle. Fog.No wind93%29.67 "Hg6 mi
11:00 PM
Mon, May 2
32 °FDrizzle. Ice fog.8 mph100%29.71 "Hg4 mi
10:00 PM32 °FDrizzle. Mostly cloudy.7 mph100%29.72 "Hg4 mi
9:00 PM32 °FLight freezing rain. Low clouds.9 mph93%29.73 "Hg6 mi
8:00 PM32 °FLight freezing rain. Low clouds.12 mph93%29.75 "Hg10 mi
7:54 PM32 °FLight freezing rain. Low clouds.9 mph93%29.76 "Hg10 mi
7:00 PM32 °FMore clouds than sun.10 mph93%29.76 "Hg15 mi
6:00 PM34 °FMore clouds than sun.9 mph87%29.77 "Hg15 mi
5:00 PM36 °FMore clouds than sun.12 mph81%29.80 "Hg15 mi
4:49 PM34 °FMore clouds than sun.8 mph87%29.80 "Hg15 mi
4:00 PM34 °FLow clouds.9 mph87%29.82 "Hg15 mi
3:00 PM34 °FLow clouds.8 mph87%29.85 "Hg15 mi
2:00 PM34 °FLow clouds.7 mph87%29.87 "Hg15 mi
1:00 PM32 °FLow clouds.8 mph93%29.88 "Hg15 mi
12:00 PM32 °FLow clouds.8 mph87%29.90 "Hg10 mi
11:00 AM30 °FLow clouds.5 mph93%29.90 "Hg15 mi
10:00 AM30 °FLow clouds.6 mph93%29.91 "Hg15 mi
9:00 AM30 °FLow clouds.6 mph93%29.91 "Hg15 mi
8:00 AM30 °FLow clouds.6 mph86%29.92 "Hg15 mi
7:00 AM28 °FLow clouds.6 mph93%29.93 "Hg15 mi
6:00 AM28 °FLow clouds.3 mph93%29.93 "Hg10 mi
5:00 AM28 °FIce fog.6 mph100%29.92 "Hg6 mi
4:00 AM28 °FIce fog.3 mph100%29.92 "Hg6 mi
3:00 AM28 °FIce fog.3 mph100%29.91 "Hg3 mi
2:00 AM30 °FLight snow. Overcast.5 mph93%29.90 "Hg4 mi
Weather by CustomWeather, © 2016

See weather overviewHow to use our weather pages